Flag for Poland Weather past 2 weeks in Sosnowiec, Poland

46 °F


Feels Like: 41 °F
Forecast: 39 / 56 °F
Wind: 12 mph from East

Location: Katowice Airport

Current Time: Oct 7, 2015 at 9:34:19 PM

Latest Report: Oct 7, 2015 at 9:00 PM

Visibility: 10 mi

Pressure: 30.07 "Hg

Humidity: 53%

Dew point: 30 °F

Location of SosnowiecLocation

Historic Weather in Sosnowiec — Graph


Sosnowiec temperature yesterday

Maximum temperature yesterday: 68 °F (at 12:30 PM)
Minimum temperature yesterday: 37 °F (at 4:30 AM)
Average temperature yesterday: 53 °F

Past Weeks' High & Low Weather Summary

High73 °F (Oct 4, 3:00 PM)100% (Sep 24, 12:00 AM)30.57 "Hg (Sep 24, 12:00 AM)
Low28 °F (Oct 1, 5:00 AM)32% (Oct 2, 3:00 PM)29.74 "Hg (Sep 23, 4:00 AM)
Average53 °F74%30.19 "Hg
* Reported Sep 22 8:00 PM — Oct 7 8:30 PM, Sosnowiec, Weather by CustomWeather, © 2015

Note: Actual official high and low records may vary slightly from our data, if they occured in-between our weather recording intervals... More about our weather records


Sosnowiec weather history for previous 24 hours

Time TempWeatherWind HumidityBarometerVisibility
8:30 PM
Wed, Oct 7
46 °FClear.16 mph53%30.07 "Hg10 mi
8:00 PM46 °FClear.10 mph57%30.07 "Hg10 mi
7:30 PM48 °FClear.13 mph54%30.07 "Hg10 mi
7:00 PM48 °FSunny.14 mph58%30.04 "Hg10 mi
6:30 PM50 °FSunny.9 mph62%30.04 "Hg10 mi
6:00 PM50 °FSunny.16 mph62%30.04 "Hg10 mi
5:30 PM52 °FSunny.16 mph62%30.04 "Hg10 mi
5:00 PM54 °FSunny.16 mph58%30.04 "Hg10 mi
4:30 PM54 °FSunny.17 mph58%30.04 "Hg10 mi
4:00 PM54 °FSunny.17 mph58%30.04 "Hg10 mi
3:30 PM55 °FSunny.16 mph59%30.04 "Hg10 mi
3:00 PM54 °FPassing clouds.20 mph63%30.04 "HgN/A
2:30 PM55 °FScattered clouds.17 mph63%30.04 "HgN/A
2:00 PM57 °FScattered clouds.18 mph59%30.01 "HgN/A
1:30 PM57 °FPassing clouds.18 mph59%30.01 "HgN/A
1:00 PM57 °FPartly sunny.18 mph59%30.01 "HgN/A
12:30 PM54 °FPartly sunny.14 mph72%30.01 "HgN/A
12:00 PM52 °FPartly sunny.15 mph77%30.01 "HgN/A
11:30 AM54 °FPartly sunny.14 mph72%30.01 "HgN/A
11:00 AM52 °FPartly sunny.14 mph77%30.01 "HgN/A
10:30 AM52 °FOvercast.14 mph77%30.01 "HgN/A
10:00 AM54 °FPartly sunny.18 mph77%29.98 "HgN/A
9:30 AM54 °FPartly sunny.15 mph82%29.98 "Hg5 mi
9:00 AM54 °FBroken clouds.13 mph82%29.98 "Hg4 mi
8:30 AM54 °FFog.12 mph88%29.98 "Hg3 mi
8:00 AM54 °FDrizzle. Fog.17 mph94%29.95 "Hg2 mi
7:30 AM54 °FDrizzle. Fog.14 mph94%29.95 "Hg2 mi
7:00 AM54 °FDrizzle. Fog.15 mph94%29.95 "Hg2 mi
6:30 AM55 °FFog.13 mph88%29.95 "Hg3 mi
6:00 AM55 °FFog.16 mph88%29.95 "Hg3 mi
5:30 AM55 °FFog.15 mph88%29.92 "Hg3 mi
5:00 AM55 °FFog.14 mph88%29.92 "Hg3 mi
4:30 AM55 °FFog.14 mph88%29.92 "Hg3 mi
4:00 AM55 °FFog.10 mph88%29.92 "Hg3 mi
3:30 AM55 °FFog.13 mph88%29.92 "Hg3 mi
3:00 AM55 °FFog.12 mph88%29.92 "Hg3 mi
2:30 AM55 °FFog.13 mph88%29.92 "Hg2 mi
2:00 AM54 °FFog.13 mph94%29.92 "Hg2 mi
1:30 AM54 °FFog.12 mph94%29.92 "Hg2 mi
1:00 AM54 °FFog.12 mph88%29.92 "Hg2 mi
12:30 AM54 °FFog.13 mph88%29.92 "Hg2 mi
12:00 AM52 °FFog.10 mph94%29.92 "Hg2 mi
11:30 PM
Tue, Oct 6
54 °FFog.12 mph88%29.92 "Hg2 mi
11:00 PM54 °FFog.7 mph88%29.92 "Hg3 mi
10:30 PM54 °FClear.6 mph88%29.92 "Hg4 mi
10:00 PM54 °FClear.6 mph82%29.89 "Hg5 mi
9:30 PM55 °FClear.6 mph82%29.89 "Hg5 mi
9:00 PM54 °FClear.6 mph88%29.89 "Hg4 mi
Weather by CustomWeather, © 2015

See weather overviewHow to use our weather pages